Wind_Speed
22 22 21 22 22 23 23 24 24 24 25 26 26 26 26 27 28 29 31 32 33 33 34 35 36 37 37 39 40 41 42 43 44 45 47 48 49 51 52 53 54 55 56 57
23 23 22 23 23 24 24 25 25 26 26 28 28 27 27 28 29 30 31 32 33 33 34 35 36 36 37 38 39 40 41 42 43 44 45 46 47 48 50 51 52 54 55 56
25 24 24 24 24 25 26 26 27 28 28 29 30 29 28 29 30 31 32 32 32 33 34 34 35 36 36 37 37 38 40 41 42 43 43 44 45 47 49 51 53 54 55 56
26 25 25 25 25 26 27 28 29 30 30 30 31 32 29 30 30 31 31 32 32 33 34 34 35 36 36 37 37 38 40 41 42 42 43 45 46 47 49 51 52 54 56 57
28 27 26 26 27 27 28 28 30 31 31 31 31 34 31 31 30 30 31 32 32 33 34 35 36 36 37 38 38 39 40 41 42 42 44 44 46 47 49 50 51 53 55 56
29 28 28 28 28 29 29 30 31 32 32 32 31 34 33 32 32 32 32 32 33 34 35 36 37 37 38 39 39 40 41 41 43 43 43 44 45 46 48 49 50 52 54 55
30 30 30 29 29 29 30 30 32 33 33 33 33 34 33 34 34 33 34 34 34 36 36 36 38 38 39 39 40 41 42 43 43 44 44 45 46 47 48 49 50 51 52 54
32 31 31 31 30 30 30 31 31 33 35 35 35 35 34 34 35 35 35 35 35 37 37 38 38 39 40 40 41 42 42 43 44 44 45 46 46 47 48 49 49 49 50 51
34 34 33 32 32 31 31 31 32 34 36 37 37 36 35 34 35 36 36 37 37 38 38 38 39 40 40 41 41 42 42 43 45 46 47 47 47 47 47 47 47 48 49 51
36 36 35 34 34 34 34 33 33 34 37 38 38 36 36 36 36 36 37 38 39 38 39 39 40 40 41 41 42 43 43 44 45 46 47 47 47 47 46 46 47 47 49 49
37 38 37 36 35 35 34 34 35 36 37 38 39 38 37 37 38 38 38 39 39 39 39 40 40 41 42 42 44 44 45 45 46 47 47 47 47 46 45 45 45 46 47 47
37 38 39 38 37 36 36 36 36 37 37 38 39 38 37 37 38 38 39 39 39 39 39 40 41 42 43 44 45 46 46 46 47 48 47 46 46 44 44 44 44 44 45 45
38 39 39 39 39 38 37 36 36 37 38 38 39 38 37 37 38 38 39 39 39 39 39 40 41 42 43 44 46 46 46 46 47 47 46 45 44 43 43 42 42 42 42 42
39 40 40 39 40 39 38 37 37 38 38 39 38 37 36 38 39 39 39 39 40 40 41 41 42 43 44 45 46 46 46 46 47 47 46 45 43 42 42 41 41 40 40 40
40 40 40 40 40 40 40 38 38 38 38 40 38 37 36 37 38 39 40 40 40 40 41 42 43 44 45 46 46 46 46 46 47 47 46 44 42 41 40 40 39 39 38 38
41 41 41 41 40 40 40 39 39 39 39 39 39 37 36 37 39 39 39 39 39 40 41 43 44 45 46 47 46 45 46 46 47 46 44 42 40 39 38 37 37 37 36 35
41 41 42 41 40 41 41 38 38 38 38 39 39 37 37 38 39 39 40 40 40 41 43 43 45 45 46 46 45 45 46 47 46 45 42 40 38 37 35 34 34 34 33 32
42 42 42 42 41 43 39 37 37 38 37 38 38 38 39 39 39 40 40 41 41 42 43 43 44 45 46 45 45 46 45 46 45 43 40 38 36 34 33 33 32 31 30 28
42 42 42 43 43 43 39 38 38 39 38 37 38 38 39 39 39 39 39 40 41 42 43 43 44 45 45 45 45 45 45 44 44 41 38 35 34 32 31 30 29 29 27 25
43 43 44 44 45 44 40 38 39 40 40 38 38 39 40 41 41 40 40 41 42 43 44 44 44 45 45 45 44 44 43 42 41 39 36 34 32 31 30 29 28 27 25 23
44 44 44 44 44 44 41 40 40 40 40 39 40 40 40 41 42 43 43 42 43 43 44 45 45 44 44 44 44 42 41 40 38 37 34 32 31 30 28 28 27 25 24 22
43 44 44 44 45 43 40 40 40 41 41 41 41 41 41 42 42 43 43 43 43 44 44 45 44 43 43 43 42 41 40 38 35 34 32 31 29 28 28 26 24 23 22 22
42 42 42 42 42 41 40 40 40 41 41 41 41 41 42 42 43 43 43 43 43 44 44 43 42 41 41 42 41 39 37 36 34 33 31 29 27 26 26 24 22 21 21 20
39 40 40 40 40 39 40 40 40 41 41 41 41 42 42 43 43 43 43 43 43 43 42 41 40 40 40 40 39 37 36 35 33 32 31 30 27 25 24 23 21 20 19 18
38 39 39 39 38 38 39 40 40 41 41 41 42 43 43 43 43 43 43 42 41 41 41 40 40 40 40 39 38 36 36 35 34 33 32 30 27 26 24 22 21 20 19 18
38 39 40 39 38 40 40 40 40 41 42 43 43 43 43 44 44 43 42 42 41 40 40 40 40 40 39 38 37 36 36 36 35 33 31 29 27 25 23 21 19 17 16 14
Wind_Direction
273 274 275 277 278 280 282 285 288 290 291 290 291 292 292 292 293 295 296 294 292 292 291 291 291 289 288 287 285 284 283 282 280 275 272 271 270 268 266 267 266 266 265 264
272 274 276 278 279 280 282 285 287 289 291 291 291 292 292 294 295 295 296 295 293 291 291 292 293 293 292 291 288 286 286 284 281 279 275 273 272 270 269 269 268 266 265 266
272 274 276 278 279 279 281 285 287 289 291 290 291 292 292 294 296 296 296 296 294 292 292 293 294 295 294 293 291 289 288 286 284 281 277 275 274 273 272 270 268 267 265 266
270 272 275 277 278 281 282 285 286 288 290 291 293 294 294 295 297 297 296 296 295 293 293 295 295 295 295 294 293 292 292 289 287 284 282 280 278 277 276 274 270 268 267 267
268 271 273 276 278 281 283 285 286 288 289 291 293 294 296 296 296 297 296 296 295 294 295 295 295 295 295 295 295 295 295 292 290 288 288 285 282 281 279 277 274 271 269 269
267 270 272 275 278 281 284 286 287 287 289 291 293 293 297 297 297 297 297 297 296 295 296 296 296 295 296 297 296 296 296 295 293 292 292 290 287 285 281 279 277 275 272 270
265 268 272 275 277 280 283 286 288 289 290 292 294 294 297 298 298 298 298 298 297 297 297 298 297 297 297 298 297 296 297 297 296 294 293 292 290 288 285 282 279 276 273 271
265 267 270 273 276 279 282 285 288 290 292 293 295 295 297 298 298 298 299 299 299 299 299 300 300 299 299 298 298 298 297 298 298 298 296 295 292 290 287 284 281 278 275 273
265 267 269 272 275 278 281 284 287 289 290 293 294 296 296 297 298 298 299 299 299 300 301 301 301 301 301 301 300 300 300 299 299 300 299 297 293 291 288 285 282 280 277 275
265 267 268 271 274 277 280 284 286 289 291 293 294 296 297 299 299 300 301 302 301 300 299 301 303 303 303 303 303 303 301 301 302 301 300 297 295 292 290 287 284 280 278 275
265 267 269 271 273 277 280 282 285 287 289 291 294 296 299 300 301 303 304 303 302 302 300 301 304 304 305 304 304 304 303 302 303 302 300 298 295 293 291 289 286 283 279 276
264 266 268 270 272 275 278 281 284 286 289 290 292 295 298 299 300 303 304 304 304 303 302 302 304 305 305 305 306 305 304 304 304 303 301 298 296 294 292 291 290 286 282 279
264 266 268 270 272 275 278 281 283 284 285 288 291 296 298 298 300 302 303 304 304 303 302 303 304 305 306 306 306 306 306 306 305 304 302 299 297 295 293 293 291 287 284 280
263 265 267 270 273 276 278 280 281 282 285 288 292 296 296 297 299 301 302 302 303 304 304 305 306 306 306 307 307 307 307 307 306 305 303 300 297 295 294 293 292 289 285 281
262 264 266 268 270 273 276 278 280 282 286 289 293 295 297 298 299 300 302 303 304 304 305 306 306 306 307 308 309 307 307 307 307 306 304 301 297 295 295 293 292 289 285 282
262 265 267 267 269 271 273 276 279 282 285 289 292 294 297 297 299 300 301 302 303 303 304 306 306 306 307 308 308 307 308 308 308 307 304 301 297 295 295 294 293 290 287 283
261 264 267 269 270 270 271 276 280 282 285 288 291 295 295 296 299 301 300 300 301 303 305 306 306 307 309 308 308 309 309 309 309 307 305 302 300 296 296 295 294 292 290 285
260 263 266 268 270 270 276 277 279 281 284 287 290 292 294 296 299 300 301 301 302 303 304 306 308 308 309 308 308 310 311 311 310 309 305 303 300 297 296 295 294 293 292 287
260 263 265 267 270 272 275 278 281 282 284 287 289 291 293 296 297 298 299 300 302 303 305 307 308 309 310 310 310 310 311 311 311 309 305 303 301 300 298 296 295 295 291 286
260 262 264 267 270 273 277 279 281 282 284 286 289 291 293 295 297 298 299 300 302 303 304 306 307 308 309 310 311 311 312 312 312 310 306 303 301 301 299 297 297 295 290 285
260 262 264 266 270 273 277 279 281 281 284 286 289 291 293 295 298 300 300 300 301 303 304 305 307 307 308 309 310 311 312 312 312 311 308 303 300 301 301 299 297 293 289 284
260 262 264 265 268 273 277 278 279 281 283 286 288 291 293 295 297 298 299 299 301 302 304 305 306 306 308 309 309 310 311 311 311 310 309 305 302 300 300 298 296 292 288 284
259 262 264 266 269 273 275 277 278 280 282 285 287 290 292 294 296 297 298 299 301 301 303 304 305 307 308 309 310 310 311 310 310 308 308 307 303 301 300 297 293 290 286 281
257 258 261 264 267 270 273 275 277 279 282 284 287 289 291 293 295 297 298 299 300 301 302 303 304 306 307 309 310 309 309 309 306 305 307 306 304 301 298 296 292 288 284 279
255 256 259 261 264 267 270 273 275 278 281 283 285 288 291 293 295 296 296 297 298 300 301 303 304 305 307 308 308 306 307 307 306 306 306 305 302 300 296 293 290 286 283 280
255 256 258 260 263 266 268 271 274 276 278 280 283 285 288 291 293 294 294 296 297 298 300 302 303 305 305 306 306 305 305 306 306 306 305 304 301 298 294 289 284 281 277 271
Height
5732 5733 5732 5731 5730 5729 5728 5726 5725 5724 5722 5720 5718 5716 5714 5711 5708 5705 5702 5699 5697 5694 5692 5689 5687 5684 5681 5679 5676 5674 5672 5670 5668 5667 5667 5667 5668 5669 5669 5670 5670 5671 5671 5672
5727 5726 5726 5724 5724 5722 5721 5720 5719 5718 5715 5713 5711 5710 5707 5704 5701 5698 5695 5691 5688 5686 5683 5681 5678 5675 5672 5669 5666 5664 5662 5659 5657 5655 5655 5655 5655 5655 5656 5656 5656 5656 5657 5657
5719 5720 5719 5718 5717 5716 5715 5714 5712 5711 5709 5706 5704 5703 5701 5698 5694 5691 5687 5683 5680 5678 5675 5673 5670 5666 5663 5660 5657 5654 5652 5649 5647 5645 5644 5643 5642 5642 5642 5642 5641 5641 5642 5642
5712 5713 5712 5711 5711 5709 5709 5708 5705 5703 5701 5699 5697 5694 5695 5691 5688 5684 5680 5676 5673 5670 5668 5665 5662 5659 5655 5652 5648 5645 5642 5639 5636 5634 5632 5631 5629 5629 5628 5627 5627 5627 5627 5627
5706 5706 5705 5705 5704 5703 5702 5700 5698 5696 5694 5692 5690 5686 5687 5684 5681 5677 5673 5669 5666 5663 5660 5657 5654 5651 5647 5643 5640 5636 5633 5629 5626 5624 5621 5619 5617 5616 5614 5612 5612 5612 5612 5612
5698 5698 5698 5698 5697 5696 5694 5693 5691 5689 5686 5685 5684 5680 5678 5676 5673 5670 5666 5662 5659 5655 5652 5649 5645 5642 5639 5635 5631 5627 5623 5620 5616 5613 5610 5606 5604 5602 5600 5599 5597 5596 5596 5596
5691 5691 5691 5690 5690 5689 5687 5686 5684 5680 5678 5677 5675 5672 5671 5668 5665 5662 5659 5655 5651 5647 5644 5641 5637 5633 5630 5626 5622 5618 5614 5610 5606 5602 5598 5594 5591 5588 5586 5584 5582 5581 5580 5580
5682 5683 5683 5682 5682 5681 5679 5678 5676 5673 5670 5668 5667 5664 5664 5660 5656 5653 5650 5647 5643 5639 5635 5632 5628 5624 5620 5616 5612 5608 5604 5600 5595 5591 5587 5583 5579 5575 5573 5570 5568 5566 5565 5565
5673 5674 5675 5674 5673 5673 5672 5670 5669 5666 5662 5660 5658 5656 5655 5652 5649 5645 5642 5638 5634 5631 5627 5623 5619 5615 5610 5606 5602 5597 5593 5589 5584 5579 5575 5571 5567 5563 5559 5556 5554 5552 5550 5549
5664 5665 5666 5666 5665 5665 5664 5662 5661 5657 5654 5651 5650 5648 5647 5643 5640 5637 5633 5629 5625 5621 5618 5614 5610 5606 5601 5596 5592 5587 5582 5577 5572 5567 5563 5558 5554 5550 5546 5543 5540 5538 5535 5534
5655 5656 5656 5657 5657 5657 5656 5654 5652 5649 5647 5644 5641 5643 5639 5635 5631 5628 5624 5620 5616 5612 5608 5605 5601 5596 5591 5587 5582 5577 5571 5566 5561 5556 5551 5546 5542 5537 5533 5530 5527 5523 5521 5518
5645 5646 5646 5647 5648 5647 5646 5645 5644 5642 5639 5636 5633 5636 5631 5627 5623 5619 5615 5611 5607 5602 5599 5595 5591 5586 5582 5577 5571 5566 5560 5555 5549 5544 5538 5534 5529 5525 5521 5517 5513 5509 5506 5504
5635 5636 5637 5637 5640 5638 5637 5637 5635 5632 5630 5627 5625 5628 5623 5619 5615 5611 5607 5602 5598 5594 5590 5586 5582 5577 5572 5567 5561 5555 5549 5544 5538 5532 5526 5521 5517 5512 5508 5505 5501 5497 5493 5491
5625 5625 5628 5629 5627 5627 5627 5627 5625 5623 5621 5619 5618 5617 5615 5610 5606 5602 5598 5593 5589 5585 5581 5576 5572 5567 5562 5557 5551 5545 5539 5533 5527 5521 5515 5510 5505 5501 5497 5493 5489 5485 5482 5479
5614 5615 5617 5618 5618 5617 5617 5617 5615 5614 5613 5611 5611 5608 5606 5601 5596 5593 5589 5584 5580 5576 5571 5567 5562 5557 5552 5547 5541 5535 5529 5522 5516 5509 5503 5498 5494 5490 5486 5483 5479 5475 5471 5468
5603 5605 5606 5607 5608 5607 5606 5608 5607 5605 5604 5602 5600 5600 5598 5592 5588 5584 5580 5576 5572 5567 5563 5558 5553 5547 5542 5536 5530 5525 5518 5512 5505 5498 5492 5487 5483 5480 5476 5473 5469 5465 5462 5459
5593 5594 5595 5596 5597 5595 5596 5601 5599 5597 5596 5593 5591 5592 5588 5583 5579 5575 5571 5567 5562 5558 5554 5549 5543 5538 5532 5526 5520 5514 5508 5501 5494 5488 5482 5477 5473 5470 5467 5463 5460 5456 5453 5450
5583 5584 5584 5584 5586 5584 5592 5591 5589 5587 5587 5584 5582 5581 5578 5574 5570 5566 5562 5557 5553 5548 5544 5539 5534 5528 5523 5517 5511 5505 5498 5491 5485 5478 5473 5468 5464 5461 5458 5455 5452 5448 5446 5443
5572 5573 5573 5573 5572 5574 5580 5581 5579 5576 5577 5576 5573 5571 5568 5564 5562 5559 5553 5548 5543 5539 5534 5529 5524 5519 5513 5507 5501 5495 5489 5482 5475 5470 5464 5460 5457 5454 5451 5447 5445 5441 5439 5437
5561 5562 5563 5563 5562 5563 5571 5571 5568 5567 5566 5567 5563 5561 5558 5554 5551 5550 5544 5539 5535 5530 5525 5520 5515 5510 5504 5498 5492 5486 5480 5473 5467 5461 5456 5453 5449 5446 5443 5440 5438 5435 5433 5432
5550 5551 5552 5552 5551 5553 5560 5560 5558 5557 5557 5555 5552 5550 5547 5544 5541 5538 5533 5529 5525 5520 5515 5510 5505 5500 5494 5488 5482 5477 5471 5465 5459 5454 5449 5446 5442 5439 5436 5434 5431 5429 5427 5426
5538 5540 5541 5542 5541 5547 5549 5548 5547 5546 5545 5543 5541 5540 5537 5534 5531 5527 5523 5519 5515 5510 5505 5500 5495 5490 5484 5478 5473 5468 5462 5457 5452 5448 5444 5440 5436 5433 5430 5428 5426 5424 5423 5422
5527 5530 5531 5532 5536 5537 5536 5536 5535 5534 5534 5532 5531 5529 5527 5524 5521 5517 5514 5509 5505 5500 5495 5490 5485 5480 5475 5469 5464 5459 5455 5450 5446 5442 5439 5435 5431 5427 5424 5422 5421 5419 5418 5417
5516 5518 5519 5521 5524 5525 5525 5524 5524 5523 5522 5521 5520 5518 5516 5513 5510 5507 5503 5499 5495 5490 5485 5480 5476 5472 5467 5462 5456 5451 5447 5443 5439 5436 5433 5429 5425 5422 5420 5417 5415 5414 5413 5413
5506 5507 5508 5510 5513 5513 5513 5513 5513 5512 5511 5510 5509 5507 5505 5502 5500 5496 5493 5489 5485 5481 5476 5471 5467 5463 5458 5454 5449 5444 5439 5436 5433 5429 5426 5422 5419 5417 5414 5412 5410 5409 5408 5407
5496 5497 5498 5500 5502 5501 5502 5502 5502 5501 5501 5500 5499 5497 5495 5492 5489 5486 5482 5479 5475 5471 5466 5462 5458 5454 5450 5445 5441 5437 5432 5429 5425 5422 5419 5415 5412 5410 5408 5406 5406 5404 5403 5403